| time (UTC) | temp C | wind direction | speed KPH | gust KPH | rain 1hr cm | rain 24hr cm | rain mn cm | humidity % | barometer mb |
| 20260504060208 | 11 | 163 | 1.6 | 3.2 | 0.00 | 0.00 | 0.00 | 61 | 1003.0 |
| 20260504050635 | 11 | 168 | 0.0 | 1.6 | 0.00 | 0.00 | 0.00 | 62 | 1003.9 |
| 20260504050132 | 11 | 274 | 4.8 | 9.7 | 0.00 | 0.00 | 0.00 | 62 | 1004.1 |
| 20260504045630 | 11 | 172 | 1.6 | 3.2 | 0.00 | 0.00 | 0.00 | 62 | 1004.0 |
| 20260504045129 | 11 | 174 | 3.2 | 3.2 | 0.00 | 0.00 | 0.00 | 62 | 1004.1 |
| 20260504044627 | 11 | 165 | 1.6 | 3.2 | 0.00 | 0.00 | 0.00 | 62 | 1004.3 |
| 20260504044124 | 11 | 247 | 4.8 | 9.7 | 0.00 | 0.00 | 0.00 | 63 | 1004.0 |
| 20260504043621 | 11 | 171 | 1.6 | 1.6 | 0.00 | 0.00 | 0.00 | 63 | 1004.1 |
| 20260504043118 | 10 | 172 | 3.2 | 3.2 | 0.00 | 0.00 | 0.00 | 63 | 1004.2 |
| 20260504042615 | 10 | 166 | 1.6 | 1.6 | 0.00 | 0.00 | 0.00 | 65 | 1004.2 |
| 20260504042112 | 10 | 159 | 3.2 | 3.2 | 0.00 | 0.00 | 0.00 | 65 | 1004.2 |
| 20260504041608 | 10 | 153 | 1.6 | 3.2 | 0.00 | 0.00 | 0.00 | 66 | 1004.4 |
| 20260504041104 | 10 | 155 | 1.6 | 1.6 | 0.00 | 0.00 | 0.00 | 66 | 1004.4 |
| 20260504040602 | 10 | 158 | 0.0 | 0.0 | 0.00 | 0.00 | 0.00 | 66 | 1004.5 |
| 20260504040058 | 10 | 158 | 0.0 | 1.6 | 0.00 | 0.00 | 0.00 | 66 | 1004.4 |
| 20260504035555 | 10 | 163 | 4.8 | 4.8 | 0.00 | 0.00 | 0.00 | 66 | 1004.5 |
| 20260504035051 | 11 | 166 | 1.6 | 3.2 | 0.00 | 0.00 | 0.00 | 65 | 1004.6 |
| 20260504034549 | 11 | 164 | 1.6 | 1.6 | 0.00 | 0.00 | 0.00 | 65 | 1004.7 |
| 20260504034046 | 11 | 162 | 3.2 | 3.2 | 0.00 | 0.00 | 0.00 | 64 | 1004.8 |
| 20260504033544 | 11 | 151 | 0.0 | 1.6 | 0.00 | 0.00 | 0.00 | 63 | 1004.7 |
| 20260504033041 | 11 | 151 | 0.0 | 1.6 | 0.00 | 0.00 | 0.00 | 63 | 1004.7 |
| 20260504032538 | 11 | 135 | 0.0 | 1.6 | 0.00 | 0.00 | 0.00 | 63 | 1004.8 |
| 20260504032035 | 11 | 164 | 3.2 | 3.2 | 0.00 | 0.00 | 0.00 | 63 | 1004.8 |
| 20260504031532 | 11 | 159 | 3.2 | 3.2 | 0.00 | 0.00 | 0.00 | 62 | 1004.9 |
| 20260504031028 | 11 | 171 | 3.2 | 3.2 | 0.00 | 0.00 | 0.00 | 62 | 1005.1 |
| 20260504030526 | 11 | 165 | 3.2 | 3.2 | 0.00 | 0.00 | 0.00 | 62 | 1005.1 |
| 20260504030021 | 11 | 161 | 1.6 | 1.6 | 0.00 | 0.00 | 0.00 | 62 | 1005.0 |
| 20260504025519 | 11 | 181 | 3.2 | 3.2 | 0.00 | 0.00 | 0.00 | 61 | 1005.1 |
| 20260504025015 | 11 | 163 | 1.6 | 1.6 | 0.00 | 0.00 | 0.00 | 62 | 1005.3 |
| 20260504024512 | 11 | 173 | 3.2 | 3.2 | 0.00 | 0.00 | 0.00 | 61 | 1005.3 |
| 20260504024009 | 11 | 168 | 3.2 | 4.8 | 0.00 | 0.00 | 0.00 | 61 | 1005.2 |
| 20260504023506 | 11 | 158 | 1.6 | 3.2 | 0.00 | 0.00 | 0.00 | 62 | 1005.4 |
| 20260504023002 | 11 | 150 | 3.2 | 3.2 | 0.00 | 0.00 | 0.00 | 61 | 1005.3 |
| 20260504022458 | 11 | 163 | 1.6 | 1.6 | 0.00 | 0.00 | 0.00 | 60 | 1005.3 |
| 20260504021954 | 11 | 167 | 1.6 | 1.6 | 0.00 | 0.00 | 0.00 | 59 | 1005.4 |
| 20260504021452 | 11 | 159 | 1.6 | 3.2 | 0.00 | 0.00 | 0.00 | 60 | 1005.3 |
| 20260504020949 | 11 | 154 | 1.6 | 3.2 | 0.00 | 0.00 | 0.00 | 60 | 1005.3 |
| 20260504020445 | 11 | 166 | 3.2 | 3.2 | 0.00 | 0.00 | 0.00 | 59 | 1005.3 |
| 20260504015942 | 11 | 162 | 1.6 | 1.6 | 0.00 | 0.00 | 0.00 | 60 | 1005.5 |
| 20260504015438 | 11 | 176 | 1.6 | 3.2 | 0.00 | 0.00 | 0.00 | 60 | 1005.7 |
| 20260504014934 | 11 | 169 | 1.6 | 3.2 | 0.00 | 0.00 | 0.00 | 61 | 1005.5 |
| 20260504014431 | 11 | 154 | 6.4 | 11.3 | 0.00 | 0.00 | 0.00 | 60 | 1005.5 |
| 20260504013927 | 11 | 231 | 6.4 | 6.4 | 0.00 | 0.00 | 0.00 | 60 | 1005.5 |
| 20260504013427 | 11 | 189 | 3.2 | 3.2 | 0.00 | 0.00 | 0.00 | 59 | 1005.5 |
| 20260504012926 | 12 | 162 | 1.6 | 1.6 | 0.00 | 0.00 | 0.00 | 59 | 1005.5 |
| 20260504012425 | 12 | 200 | 3.2 | 3.2 | 0.00 | 0.00 | 0.00 | 59 | 1005.5 |
| 20260504011922 | 12 | 174 | 3.2 | 3.2 | 0.00 | 0.00 | 0.00 | 59 | 1005.4 |
| 20260504011419 | 12 | 164 | 1.6 | 1.6 | 0.00 | 0.00 | 0.00 | 59 | 1005.3 |
| 20260504010914 | 12 | 159 | 3.2 | 3.2 | 0.00 | 0.00 | 0.00 | 58 | 1005.5 |
| 20260504010411 | 12 | 161 | 3.2 | 4.8 | 0.00 | 0.00 | 0.00 | 57 | 1005.4 |
| 20260504005907 | 12 | 163 | 1.6 | 3.2 | 0.00 | 0.00 | 0.00 | 55 | 1005.3 |
| 20260504005403 | 13 | 197 | 6.4 | 6.4 | 0.00 | 0.00 | 0.00 | 53 | 1005.2 |
| 20260504004901 | 13 | 141 | 1.6 | 1.6 | 0.00 | 0.00 | 0.00 | 48 | 1005.2 |
| 20260504004359 | 13 | 144 | 1.6 | 1.6 | 0.00 | 0.00 | 0.00 | 45 | 1005.2 |
| 20260504003855 | 13 | 187 | 1.6 | 1.6 | 0.00 | 0.00 | 0.00 | 44 | 1004.7 |
| 20260504003352 | 13 | 177 | 3.2 | 4.8 | 0.00 | 0.00 | 0.00 | 43 | 1004.9 |
| 20260504002849 | 13 | 168 | 4.8 | 6.4 | 0.00 | 0.00 | 0.00 | 42 | 1004.8 |
| 20260504002345 | 14 | 166 | 4.8 | 6.4 | 0.00 | 0.00 | 0.00 | 41 | 1004.8 |
| 20260504001843 | 14 | 166 | 3.2 | 4.8 | 0.00 | 0.00 | 0.00 | 42 | 1004.8 |
| 20260504001340 | 14 | 289 | 4.8 | 6.4 | 0.00 | 0.00 | 0.00 | 41 | 1004.9 |
| 20260504000837 | 14 | 154 | 3.2 | 4.8 | 0.00 | 0.00 | 0.00 | 41 | 1005.0 |
| 20260504000334 | 14 | 160 | 4.8 | 4.8 | 0.00 | 0.00 | 0.00 | 41 | 1004.7 |
| 20260503235832 | 14 | 187 | 4.8 | 6.4 | 0.00 | 0.00 | 0.00 | 42 | 1004.8 |
| 20260503235329 | 15 | 149 | 3.2 | 3.2 | 0.00 | 0.00 | 0.00 | 42 | 1004.7 |
| 20260503234826 | 15 | 153 | 4.8 | 6.4 | 0.00 | 0.00 | 0.00 | 41 | 1004.7 |
| 20260503234324 | 15 | 202 | 3.2 | 3.2 | 0.00 | 0.00 | 0.00 | 40 | 1004.7 |
| 20260503233822 | 15 | 177 | 3.2 | 4.8 | 0.00 | 0.00 | 0.00 | 39 | 1004.8 |
| 20260503233317 | 15 | 172 | 6.4 | 9.7 | 0.00 | 0.00 | 0.00 | 39 | 1004.9 |
| 20260503232814 | 15 | 153 | 6.4 | 9.7 | 0.00 | 0.00 | 0.00 | 39 | 1004.9 |
| 20260503232312 | 15 | 175 | 3.2 | 4.8 | 0.00 | 0.00 | 0.00 | 39 | 1004.9 |
| 20260503231809 | 15 | 155 | 6.4 | 9.7 | 0.00 | 0.00 | 0.00 | 40 | 1005.0 |
| 20260503231306 | 15 | 205 | 3.2 | 4.8 | 0.00 | 0.00 | 0.00 | 40 | 1004.8 |
| 20260503230802 | 16 | 211 | 3.2 | 4.8 | 0.00 | 0.00 | 0.00 | 38 | 1004.9 |
| 20260503230259 | 16 | 178 | 4.8 | 9.7 | 0.00 | 0.00 | 0.00 | 40 | 1005.0 |
| 20260503225757 | 15 | 134 | 3.2 | 4.8 | 0.00 | 0.00 | 0.00 | 39 | 1005.0 |
| 20260503225252 | 15 | 170 | 6.4 | 6.4 | 0.00 | 0.00 | 0.00 | 39 | 1005.2 |
| 20260503224749 | 15 | 159 | 3.2 | 3.2 | 0.00 | 0.00 | 0.00 | 39 | 1005.0 |
| 20260503224247 | 15 | 169 | 6.4 | 9.7 | 0.00 | 0.00 | 0.00 | 38 | 1005.1 |
| 20260503223744 | 15 | 181 | 4.8 | 6.4 | 0.00 | 0.00 | 0.00 | 38 | 1004.9 |
| 20260503223241 | 15 | 168 | 4.8 | 6.4 | 0.00 | 0.00 | 0.00 | 40 | 1005.2 |
| 20260503222737 | 15 | 160 | 4.8 | 6.4 | 0.00 | 0.00 | 0.00 | 40 | 1005.1 |
| 20260503222235 | 16 | 189 | 3.2 | 4.8 | 0.00 | 0.00 | 0.00 | 40 | 1004.9 |
| 20260503221734 | 15 | 168 | 4.8 | 4.8 | 0.00 | 0.00 | 0.00 | 38 | 1005.0 |
| 20260503221231 | 16 | 141 | 3.2 | 4.8 | 0.00 | 0.00 | 0.00 | 39 | 1005.2 |
| 20260503220727 | 16 | 154 | 3.2 | 3.2 | 0.00 | 0.00 | 0.00 | 39 | 1005.1 |
| 20260503220224 | 16 | 179 | 4.8 | 6.4 | 0.00 | 0.00 | 0.00 | 39 | 1005.1 |
| 20260503215721 | 16 | 179 | 3.2 | 3.2 | 0.00 | 0.00 | 0.00 | 39 | 1005.2 |
| 20260503215218 | 16 | 243 | 4.8 | 6.4 | 0.00 | 0.00 | 0.00 | 39 | 1005.2 |
| 20260503214716 | 16 | 199 | 6.4 | 6.4 | 0.00 | 0.00 | 0.00 | 37 | 1005.2 |
| 20260503214212 | 16 | 149 | 4.8 | 4.8 | 0.00 | 0.00 | 0.00 | 39 | 1005.0 |
| 20260503213711 | 16 | 193 | 8.0 | 11.3 | 0.00 | 0.00 | 0.00 | 37 | 1005.2 |
| 20260503213208 | 16 | 240 | 4.8 | 4.8 | 0.00 | 0.00 | 0.00 | 39 | 1005.1 |
| 20260503212705 | 16 | 230 | 3.2 | 3.2 | 0.00 | 0.00 | 0.00 | 39 | 1005.3 |
| 20260503212202 | 16 | 220 | 11.3 | 16.1 | 0.00 | 0.00 | 0.00 | 37 | 1005.0 |
| 20260503211700 | 16 | 176 | 3.2 | 4.8 | 0.00 | 0.00 | 0.00 | 39 | 1005.2 |
| 20260503211155 | 16 | 168 | 4.8 | 6.4 | 0.00 | 0.00 | 0.00 | 40 | 1005.2 |
| 20260503210652 | 16 | 239 | 8.0 | 11.3 | 0.00 | 0.00 | 0.00 | 39 | 1005.4 |
| 20260503210148 | 16 | 159 | 4.8 | 9.7 | 0.00 | 0.00 | 0.00 | 39 | 1005.2 |
| 20260503205644 | 16 | 130 | 4.8 | 6.4 | 0.00 | 0.00 | 0.00 | 39 | 1005.4 |
| 20260503205140 | 16 | 190 | 6.4 | 6.4 | 0.00 | 0.00 | 0.00 | 40 | 1005.4 |
| 20260503204637 | 16 | 248 | 6.4 | 6.4 | 0.00 | 0.00 | 0.00 | 40 | 1005.4 |
| 20260503204135 | 16 | 149 | 4.8 | 9.7 | 0.00 | 0.00 | 0.00 | 41 | 1005.4 |
| 20260503203631 | 16 | 161 | 6.4 | 9.7 | 0.00 | 0.00 | 0.00 | 40 | 1005.3 |
| 20260503203129 | 16 | 164 | 6.4 | 9.7 | 0.00 | 0.00 | 0.00 | 41 | 1005.2 |
| 20260503202626 | 16 | 202 | 3.2 | 3.2 | 0.00 | 0.00 | 0.00 | 42 | 1005.3 |
| 20260503202124 | 16 | 175 | 6.4 | 9.7 | 0.00 | 0.00 | 0.00 | 40 | 1005.5 |
| 20260503201622 | 16 | 164 | 6.4 | 9.7 | 0.00 | 0.00 | 0.00 | 37 | 1005.5 |
| 20260503201119 | 17 | 133 | 4.8 | 6.4 | 0.00 | 0.00 | 0.00 | 39 | 1005.7 |
| 20260503200615 | 16 | 202 | 4.8 | 6.4 | 0.00 | 0.00 | 0.00 | 36 | 1005.8 |
| 20260503200112 | 17 | 157 | 6.4 | 9.7 | 0.00 | 0.00 | 0.00 | 38 | 1005.8 |
| 20260503195609 | 17 | 189 | 4.8 | 6.4 | 0.00 | 0.00 | 0.00 | 39 | 1005.7 |
| 20260503195106 | 17 | 265 | 4.8 | 9.7 | 0.00 | 0.00 | 0.00 | 40 | 1005.9 |
| 20260503194603 | 16 | 186 | 3.2 | 3.2 | 0.00 | 0.00 | 0.00 | 41 | 1005.8 |
| 20260503194058 | 16 | 234 | 11.3 | 14.5 | 0.00 | 0.00 | 0.00 | 37 | 1006.1 |
| 20260503193555 | 16 | 134 | 11.3 | 17.7 | 0.00 | 0.00 | 0.00 | 38 | 1006.1 |
| 20260503193050 | 17 | 253 | 11.3 | 16.1 | 0.00 | 0.00 | 0.00 | 37 | 1006.2 |
| 20260503192547 | 17 | 115 | 6.4 | 9.7 | 0.00 | 0.00 | 0.00 | 40 | 1006.2 |
| 20260503192043 | 16 | 169 | 3.2 | 3.2 | 0.00 | 0.00 | 0.00 | 40 | 1006.2 |
| 20260503191539 | 16 | 186 | 4.8 | 4.8 | 0.00 | 0.00 | 0.00 | 41 | 1006.5 |
| 20260503191036 | 16 | 231 | 8.0 | 11.3 | 0.00 | 0.00 | 0.00 | 40 | 1006.4 |
| 20260503190533 | 16 | 148 | 6.4 | 9.7 | 0.00 | 0.00 | 0.00 | 39 | 1006.7 |
| 20260503190031 | 17 | 166 | 4.8 | 6.4 | 0.00 | 0.00 | 0.00 | 37 | 1006.6 |
| 20260503185527 | 17 | 155 | 4.8 | 6.4 | 0.00 | 0.00 | 0.00 | 40 | 1006.7 |
| 20260503185026 | 17 | 83 | 4.8 | 4.8 | 0.00 | 0.00 | 0.00 | 40 | 1006.7 |
| 20260503184523 | 16 | 179 | 4.8 | 6.4 | 0.00 | 0.00 | 0.00 | 40 | 1006.9 |
| 20260503184020 | 16 | 149 | 3.2 | 3.2 | 0.00 | 0.00 | 0.00 | 41 | 1006.8 |
| 20260503183516 | 16 | 176 | 8.0 | 11.3 | 0.00 | 0.00 | 0.00 | 38 | 1006.7 |
| 20260503183013 | 16 | 150 | 0.0 | 1.6 | 0.00 | 0.00 | 0.00 | 40 | 1006.8 |
| 20260503182512 | 16 | 188 | 4.8 | 6.4 | 0.00 | 0.00 | 0.00 | 41 | 1006.8 |
| 20260503182009 | 17 | 310 | 12.9 | 16.1 | 0.00 | 0.00 | 0.00 | 38 | 1007.0 |
| 20260503181506 | 16 | 162 | 8.0 | 9.7 | 0.00 | 0.00 | 0.00 | 38 | 1006.8 |
| 20260503181002 | 16 | 38 | 3.2 | 3.2 | 0.00 | 0.00 | 0.00 | 40 | 1007.0 |
| 20260503180500 | 16 | 179 | 3.2 | 4.8 | 0.00 | 0.00 | 0.00 | 40 | 1007.2 |
| 20260503175956 | 16 | 135 | 4.8 | 6.4 | 0.00 | 0.00 | 0.00 | 42 | 1007.2 |
| 20260503175455 | 16 | 149 | 6.4 | 9.7 | 0.00 | 0.00 | 0.00 | 38 | 1007.2 |
| 20260503174950 | 17 | 202 | 4.8 | 6.4 | 0.00 | 0.00 | 0.00 | 40 | 1007.2 |
| 20260503174449 | 16 | 146 | 3.2 | 3.2 | 0.00 | 0.00 | 0.00 | 44 | 1007.4 |
| 20260503173944 | 16 | 190 | 6.4 | 6.4 | 0.00 | 0.00 | 0.00 | 41 | 1007.4 |
| 20260503173440 | 16 | 151 | 3.2 | 4.8 | 0.00 | 0.00 | 0.00 | 45 | 1007.4 |
| 20260503172937 | 15 | 185 | 3.2 | 4.8 | 0.00 | 0.00 | 0.00 | 43 | 1007.6 |
| 20260503172434 | 16 | 175 | 1.6 | 1.6 | 0.00 | 0.00 | 0.00 | 44 | 1007.7 |
| 20260503171930 | 16 | 192 | 3.2 | 3.2 | 0.00 | 0.00 | 0.00 | 43 | 1007.7 |
| 20260503171427 | 15 | 153 | 1.6 | 1.6 | 0.00 | 0.00 | 0.00 | 45 | 1007.9 |
| 20260503170925 | 16 | 164 | 3.2 | 4.8 | 0.00 | 0.00 | 0.00 | 44 | 1007.9 |
| 20260503170421 | 15 | 276 | 6.4 | 12.9 | 0.00 | 0.00 | 0.00 | 43 | 1007.9 |
| 20260503150813 | 12 | 145 | 1.6 | 1.6 | 0.00 | 0.00 | 0.00 | 47 | 1008.8 |
| 20260503150309 | 12 | 170 | 4.8 | 11.3 | 0.00 | 0.00 | 0.00 | 46 | 1009.1 |
| 20260503140234 | 11 | 196 | 3.2 | 3.2 | 0.00 | 0.00 | 0.00 | 47 | 1008.9 |
| 20260503131203 | 8 | 188 | 3.2 | 3.2 | 0.00 | 0.00 | 0.00 | 55 | 1009.6 |
| 20260503130700 | 8 | 163 | 3.2 | 3.2 | 0.00 | 0.00 | 0.00 | 53 | 1009.6 |
| 20260503130158 | 8 | 185 | 4.8 | 6.4 | 0.00 | 0.00 | 0.00 | 54 | 1009.7 |
| 20260503120124 | 5 | 178 | 1.6 | 3.2 | 0.00 | 0.00 | 0.00 | 60 | 1009.6 |
| 20260503110550 | 3 | 163 | 0.0 | 0.0 | 0.00 | 0.00 | 0.00 | 73 | 1009.6 |
| 20260503090438 | 3 | 164 | 0.0 | 0.0 | 0.00 | 0.00 | 0.00 | 75 | 1009.2 |
| 20260503081404 | 3 | 160 | 0.0 | 0.0 | 0.00 | 0.00 | 0.00 | 76 | 1009.4 |
| 20260503080901 | 3 | 167 | 0.0 | 0.0 | 0.00 | 0.00 | 0.00 | 75 | 1009.4 |
| 20260503080358 | 3 | 155 | 0.0 | 0.0 | 0.00 | 0.00 | 0.00 | 76 | 1009.4 |
| 20260503072834 | 3 | 153 | 1.6 | 1.6 | 0.00 | 0.00 | 0.00 | 74 | 1009.4 |
| 20260503072331 | 3 | 153 | 0.0 | 0.0 | 0.00 | 0.00 | 0.00 | 75 | 1009.4 |
| 20260503071827 | 3 | 153 | 1.6 | 1.6 | 0.00 | 0.00 | 0.00 | 76 | 1009.3 |
| 20260503071325 | 3 | 161 | 0.0 | 1.6 | 0.00 | 0.00 | 0.00 | 77 | 1009.3 |
| 20260503070821 | 3 | 156 | 0.0 | 0.0 | 0.00 | 0.00 | 0.00 | 76 | 1009.3 |
| 20260503070319 | 3 | 153 | 0.0 | 0.0 | 0.00 | 0.00 | 0.00 | 76 | 1009.4 |